Wiscasset, ME

1:13 PM EDT on September 24, 2017 (GMT -0400)
Wiscasset

Weather History for KIWI - April, 2013

Change the Weather History Date:

Wednesday, April 10, 2013

  Actual Average Record
Temperature  
Mean Temperature 47 °F -  
Max Temperature 55 °F 49 °F 66 °F (2005)
Min Temperature 39 °F 28 °F 19 °F (1997)
Degree Days  
Heating Degree Days 18    
Moisture  
Dew Point 41 °F    
Average Humidity 86    
Maximum Humidity 93    
Minimum Humidity 63    
Precipitation  
Precipitation 0.26 in - - ()
Sea Level Pressure  
Sea Level Pressure 29.96 in    
Wind  
Wind Speed 1 mph (SSW)    
Max Wind Speed 6 mph    
Max Gust Speed -    
Visibility 8 miles    
Events Rain    
Averages and records for this station are not official NWS values.
T = Trace of Precipitation, MM = Missing Value Source: NWS Daily Summary

Daily Weather History Graph

Daily Weather History Graph

Search for Another Location

Airport or City:

Trip Planner

Search our weather history database for the weather conditions in past years. The results will help you decide how hot, cold, wet, or windy it might be!

Date:

Astronomy

Apr. 10, 2013 Rise Set
Actual Time 6:03 AM EDT 7:16 PM EDT
Civil Twilight 5:34 AM EDT 7:46 PM EDT
Nautical Twilight 4:58 AM EDT 8:22 PM EDT
Astronomical Twilight 4:21 AM EDT 9:00 PM EDT
Moon 5:57 AM EDT (4/10) 7:51 PM EDT (4/10)
Length of Visible Light 14h 12m
Length of Day
13h 13m
New Moon, 0% of the Moon is Illuminated
Apr 10
New Moon
Apr 18
First Quarter
Apr 25
Full
May 2
Last Quarter
May 9
New

Hourly Weather History & Observations

Time (EDT) Temp. Windchill Dew Point Humidity Pressure Visibility Wind Dir Wind Speed Gust Speed Precip Events Conditions
12:53 AM 39.0 °F - 37.0 °F 93% 29.97 in 8.0 mi Calm Calm - N/A   Overcast
1:53 AM 39.9 °F - 37.9 °F 93% 29.96 in 6.0 mi Calm Calm - 0.00 in   Overcast
2:53 AM 39.9 °F - 37.9 °F 93% 29.99 in 4.0 mi Calm Calm - 0.03 in Rain Light Rain
3:51 AM 41.0 °F - 39.2 °F 93% 30.00 in 4.0 mi Calm Calm - 0.08 in Rain Light Rain
3:53 AM 41.0 °F - 39.0 °F 93% 30.00 in 4.0 mi Calm Calm - 0.08 in Rain Light Rain
4:10 AM 41.0 °F - 39.2 °F 93% 29.98 in 4.0 mi Calm Calm - 0.02 in Rain Light Rain
4:23 AM 41.0 °F - 39.2 °F 93% 29.98 in 5.0 mi Calm Calm - 0.03 in Rain Light Rain
4:39 AM 41.0 °F - 39.2 °F 93% 29.97 in 6.0 mi Calm Calm - 0.04 in Rain Light Rain
4:53 AM 41.0 °F - 39.0 °F 93% 29.97 in 6.0 mi Calm Calm - 0.04 in Rain Light Rain
5:53 AM 41.0 °F - 39.0 °F 93% 29.97 in 5.0 mi Calm Calm - 0.01 in Rain Light Rain
6:04 AM 41.0 °F - 39.2 °F 93% 29.97 in 4.0 mi Calm Calm - 0.00 in Rain Light Rain
6:19 AM 41.0 °F - 39.2 °F 93% 29.96 in 3.0 mi Calm Calm - 0.00 in   Overcast
6:53 AM 41.0 °F - 39.0 °F 93% 29.98 in 5.0 mi Calm Calm - 0.01 in   Overcast
7:01 AM 41.0 °F - 39.2 °F 93% 29.98 in 7.0 mi Calm Calm - N/A   Overcast
7:53 AM 42.1 °F - 39.9 °F 92% 29.99 in 8.0 mi Calm Calm - N/A   Overcast
8:28 AM 42.8 °F 41.1 °F 39.2 °F 87% 29.97 in 10.0 mi Variable 3.5 mph - N/A   Overcast
8:35 AM 42.8 °F - 39.2 °F 87% 29.98 in 10.0 mi Calm Calm - N/A   Overcast
8:53 AM 43.0 °F - 41.0 °F 93% 29.99 in 10.0 mi Calm Calm - N/A   Overcast
9:25 AM 44.6 °F 43.1 °F 41.0 °F 87% 29.98 in 10.0 mi SW 3.5 mph - N/A   Overcast
9:35 AM 44.6 °F 41.4 °F 41.0 °F 87% 29.98 in 10.0 mi SSW 5.8 mph - N/A   Overcast
9:45 AM 44.6 °F 41.4 °F 41.0 °F 87% 29.98 in 10.0 mi SW 5.8 mph - N/A   Overcast
9:53 AM 45.0 °F 43.5 °F 41.0 °F 86% 29.98 in 10.0 mi Variable 3.5 mph - N/A   Overcast
10:53 AM 46.0 °F - 42.1 °F 86% 29.99 in 10.0 mi Calm Calm - N/A   Overcast
11:53 AM 48.0 °F - 43.0 °F 83% 29.97 in 10.0 mi Variable 3.5 mph - N/A   Overcast
12:16 PM 48.2 °F - 42.8 °F 82% 29.96 in 10.0 mi Variable 3.5 mph - N/A   Overcast
12:48 PM 51.8 °F - 44.6 °F 76% 29.96 in 10.0 mi Variable 3.5 mph - N/A   Overcast
12:53 PM 51.1 °F - 43.0 °F 74% 29.96 in 10.0 mi Variable 3.5 mph - N/A   Overcast
1:53 PM 55.0 °F - 43.0 °F 64% 29.94 in 10.0 mi Variable 5.8 mph - N/A   Overcast
2:12 PM 55.4 °F - 42.8 °F 63% 29.94 in 10.0 mi SSW 4.6 mph - N/A   Overcast
2:53 PM 52.0 °F - 43.0 °F 71% 29.95 in 10.0 mi Variable 3.5 mph - N/A   Overcast
3:04 PM 51.8 °F - 42.8 °F 71% 29.95 in 10.0 mi South 4.6 mph - N/A   Overcast
3:31 PM 51.8 °F - 44.6 °F 76% 29.93 in 10.0 mi SSE 3.5 mph - N/A   Overcast
3:53 PM 50.0 °F - 43.0 °F 77% 29.94 in 10.0 mi South 4.6 mph - N/A   Overcast
4:53 PM 48.9 °F - 43.0 °F 80% 29.92 in 10.0 mi SSW 3.5 mph - N/A   Overcast
5:53 PM 48.9 °F - 43.0 °F 80% 29.91 in 10.0 mi Calm Calm - N/A   Overcast
6:53 PM 48.0 °F - 42.1 °F 80% 29.93 in 10.0 mi Calm Calm - N/A   Overcast
7:53 PM 46.9 °F - 43.0 °F 86% 29.90 in 10.0 mi Calm Calm - 0.00 in   Overcast
8:53 PM 46.0 °F - 43.0 °F 89% 29.96 in 6.0 mi Calm Calm - 0.01 in Rain Light Rain
9:53 PM 45.0 °F - 43.0 °F 93% 29.93 in 7.0 mi Calm Calm - 0.04 in Rain Light Rain
10:53 PM 45.0 °F - 43.0 °F 93% 29.94 in 6.0 mi Calm Calm - 0.03 in Rain Light Rain
11:45 PM 44.6 °F - 42.8 °F 93% 29.93 in 5.0 mi Calm Calm - 0.01 in Rain Light Rain
11:53 PM 44.1 °F - 42.1 °F 93% 29.94 in 6.0 mi Calm Calm - 0.01 in Rain Light Rain